Location: Buch
(50.1863°N, 11.0141°E)
Time: 01:05:48
(UTC+00:00)

MOS 1-B - Pass Details

Date: 18 January 2020
Orbit: 906 x 913 km, 99.4° (Epoch: 22 February)

Event Time Altitude Azimuth Distance (km) Brightness Sun altitude
Rises 04:59:40 0° 15° (NNE) 3,547 7.5 -19.9°
Reaches altitude 10° 05:02:05 10° 14° (NNE) 2,602 6.8 -19.5°
Maximum altitude 05:07:52 77° 289° (WNW) 937 4.2 -18.6°
Drops below altitude 10° 05:13:38 10° 205° (SSW) 2,589 6.6 -17.7°
Sets 05:16:02 0° 204° (SSW) 3,528 7.3 -17.3°
